Location: ????????
(55.6189°N, 38.3031°E)
Time: 04:40:21
(UTC+00:00)

SL-16 R/B - Pass Details

Date: 21 February 2020
Orbit: 843 x 847 km, 71.0° (Epoch: 04 April)

Event Time Altitude Azimuth Distance (km) Brightness Sun altitude
Exits shadow 03:48:33 - 275° (W) 2,527 4.0 -7.7°
Reaches altitude 10° 03:48:44 10° 276° (W) 2,473 3.9 -7.7°
Maximum altitude 03:53:24 25° 332° (NNW) 1,636 3.4 -7.1°
Drops below altitude 10° 03:58:05 10° 27° (NNE) 2,478 4.9 -6.4°
Sets 04:00:59 0° 41° (NE) 3,414 5.8 -6.0°
